Time,TemperatureF,DewpointF,PressureIn,WindDirection,WindDirectionDegrees,WindSpeedMPH,WindSpeedGustMPH,Humidity,HourlyPrecipIn,Conditions,Clouds,dailyrainin,SoftwareType,DateUTC
2013-10-13 00:00:00,45.5,32.8,30.11,ENE,70,0.0,14.0,61,0.00,,,0.00,Wunderground v.1.13,2013-10-13 06:00:00,
2013-10-13 00:05:00,45.1,32.8,30.11,SE,127,0.0,14.0,62,0.00,,,0.00,Wunderground v.1.13,2013-10-13 06:05:00,
2013-10-13 00:15:00,44.8,33.0,30.11,SSE,153,0.0,14.0,63,0.00,,,0.00,Wunderground v.1.13,2013-10-13 06:15:00,
2013-10-13 00:20:00,44.6,32.8,30.11,ESE,113,0.0,14.0,63,0.00,,,0.00,Wunderground v.1.13,2013-10-13 06:20:00,
2013-10-13 00:25:00,44.6,33.2,30.11,SE,126,0.0,14.0,64,0.00,,,0.00,Wunderground v.1.13,2013-10-13 06:25:00,
2013-10-13 00:30:00,44.3,32.9,30.11,SE,126,0.0,14.0,64,0.00,,,0.00,Wunderground v.1.13,2013-10-13 06:30:00,
2013-10-13 00:35:00,44.1,33.1,30.11,SE,124,0.0,14.0,65,0.00,,,0.00,Wunderground v.1.13,2013-10-13 06:35:00,
2013-10-13 00:40:00,43.8,33.2,30.11,SE,124,0.0,14.0,66,0.00,,,0.00,Wunderground v.1.13,2013-10-13 06:40:00,
2013-10-13 00:45:00,43.6,33.4,30.11,SE,124,0.0,14.0,67,0.00,,,0.00,Wunderground v.1.13,2013-10-13 06:45:00,
2013-10-13 00:50:00,43.3,33.1,30.11,ESE,123,0.0,14.0,67,0.00,,,0.00,Wunderground v.1.13,2013-10-13 06:50:00,
2013-10-13 00:55:00,43.2,33.0,30.11,ESE,123,0.0,14.0,67,0.00,,,0.00,Wunderground v.1.13,2013-10-13 06:55:00,
2013-10-13 01:00:00,43.1,33.3,30.11,ESE,118,0.0,14.0,68,0.00,,,0.00,Wunderground v.1.13,2013-10-13 07:00:00,
2013-10-13 01:05:00,42.9,33.1,30.11,ESE,118,0.0,14.0,68,0.00,,,0.00,Wunderground v.1.13,2013-10-13 07:05:00,
2013-10-13 01:15:00,42.8,33.3,30.11,ESE,118,0.0,14.0,69,0.00,,,0.00,Wunderground v.1.13,2013-10-13 07:15:00,
2013-10-13 01:20:00,42.6,33.5,30.11,ESE,118,0.0,14.0,70,0.00,,,0.00,Wunderground v.1.13,2013-10-13 07:20:00,
2013-10-13 01:25:00,42.5,33.4,30.11,ESE,118,0.0,14.0,70,0.00,,,0.00,Wunderground v.1.13,2013-10-13 07:25:00,
2013-10-13 01:30:00,42.3,33.2,30.11,ESE,118,0.0,14.0,70,0.00,,,0.00,Wunderground v.1.13,2013-10-13 07:30:00,
2013-10-13 01:35:00,42.1,33.4,30.12,ESE,118,0.0,14.0,71,0.00,,,0.00,Wunderground v.1.13,2013-10-13 07:35:00,
2013-10-13 01:40:00,41.9,33.5,30.12,ESE,118,0.0,14.0,72,0.00,,,0.00,Wunderground v.1.13,2013-10-13 07:40:00,
2013-10-13 01:45:00,41.6,33.2,30.12,ESE,118,0.0,14.0,72,0.00,,,0.00,Wunderground v.1.13,2013-10-13 07:45:00,
2013-10-13 01:55:00,41.2,33.2,30.12,ESE,118,0.0,14.0,73,0.00,,,0.00,Wunderground v.1.13,2013-10-13 07:55:00,
2013-10-13 02:00:00,41.2,33.5,30.12,ESE,118,0.0,14.0,74,0.00,,,0.00,Wunderground v.1.13,2013-10-13 08:00:00,
2013-10-13 02:10:00,41.1,33.4,30.11,ESE,118,0.0,14.0,74,0.00,,,0.00,Wunderground v.1.13,2013-10-13 08:10:00,
2013-10-13 02:14:00,41.2,33.5,30.11,ESE,118,0.0,14.0,74,0.00,,,0.00,Wunderground v.1.13,2013-10-13 08:14:00,
2013-10-13 02:20:00,41.5,33.8,30.11,ESE,119,0.0,14.0,74,0.00,,,0.00,Wunderground v.1.13,2013-10-13 08:20:00,
2013-10-13 02:25:00,41.6,33.9,30.11,ESE,118,0.0,14.0,74,0.00,,,0.00,Wunderground v.1.13,2013-10-13 08:25:00,
2013-10-13 02:30:00,42.1,34.1,30.11,NE,36,0.0,14.0,73,0.00,,,0.00,Wunderground v.1.13,2013-10-13 08:30:00,
2013-10-13 02:35:00,42.3,33.9,30.10,NE,37,0.0,14.0,72,0.00,,,0.00,Wunderground v.1.13,2013-10-13 08:35:00,
2013-10-13 02:40:00,42.3,33.9,30.10,ESE,111,0.0,14.0,72,0.00,,,0.00,Wunderground v.1.13,2013-10-13 08:40:00,
2013-10-13 02:45:00,42.3,33.9,30.10,ESE,111,0.0,14.0,72,0.00,,,0.00,Wunderground v.1.13,2013-10-13 08:45:00,
2013-10-13 02:50:00,42.3,33.6,30.10,ESE,111,0.0,14.0,71,0.00,,,0.00,Wunderground v.1.13,2013-10-13 08:50:00,
2013-10-13 02:55:00,42.3,33.6,30.10,ESE,107,0.0,14.0,71,0.00,,,0.00,Wunderground v.1.13,2013-10-13 08:55:00,
2013-10-13 03:00:00,42.3,33.6,30.10,ESE,107,0.0,14.0,71,0.00,,,0.00,Wunderground v.1.13,2013-10-13 09:00:00,
2013-10-13 03:05:00,42.2,33.5,30.11,ESE,107,0.0,14.0,71,0.00,,,0.00,Wunderground v.1.13,2013-10-13 09:05:00,
2013-10-13 03:10:00,41.9,33.5,30.11,ESE,107,0.0,14.0,72,0.00,,,0.00,Wunderground v.1.13,2013-10-13 09:10:00,
2013-10-13 03:15:00,41.6,33.2,30.11,ESE,107,0.0,14.0,72,0.00,,,0.00,Wunderground v.1.13,2013-10-13 09:15:00,
2013-10-13 03:20:00,41.3,33.3,30.10,ESE,107,0.0,14.0,73,0.00,,,0.00,Wunderground v.1.13,2013-10-13 09:20:00,
2013-10-13 03:25:00,41.1,33.4,30.10,ESE,107,0.0,14.0,74,0.00,,,0.00,Wunderground v.1.13,2013-10-13 09:25:00,
2013-10-13 03:30:00,40.8,33.2,30.10,ESE,107,0.0,14.0,74,0.00,,,0.00,Wunderground v.1.13,2013-10-13 09:30:00,
2013-10-13 03:35:00,40.6,33.3,30.10,ESE,107,0.0,14.0,75,0.00,,,0.00,Wunderground v.1.13,2013-10-13 09:35:00,
2013-10-13 03:40:00,40.6,33.3,30.10,ESE,107,0.0,14.0,75,0.00,,,0.00,Wunderground v.1.13,2013-10-13 09:40:00,
2013-10-13 03:45:00,40.6,33.3,30.10,ESE,107,0.0,14.0,75,0.00,,,0.00,Wunderground v.1.13,2013-10-13 09:45:00,
2013-10-13 03:50:00,40.6,33.3,30.11,ESE,107,0.0,14.0,75,0.00,,,0.00,Wunderground v.1.13,2013-10-13 09:50:00,
2013-10-13 03:55:00,40.5,33.5,30.11,ESE,107,0.0,14.0,76,0.00,,,0.00,Wunderground v.1.13,2013-10-13 09:55:00,
2013-10-13 04:00:00,40.5,33.5,30.11,ESE,107,0.0,14.0,76,0.00,,,0.00,Wunderground v.1.13,2013-10-13 10:00:00,
2013-10-13 04:05:00,40.5,33.5,30.11,ESE,107,0.0,14.0,76,0.00,,,0.00,Wunderground v.1.13,2013-10-13 10:05:00,
2013-10-13 04:10:00,40.6,33.6,30.11,ESE,107,0.0,14.0,76,0.00,,,0.00,Wunderground v.1.13,2013-10-13 10:10:00,
2013-10-13 04:15:00,40.8,33.8,30.11,ESE,107,0.0,14.0,76,0.00,,,0.00,Wunderground v.1.13,2013-10-13 10:15:00,
2013-10-13 04:20:00,40.8,33.8,30.11,ESE,107,0.0,14.0,76,0.00,,,0.00,Wunderground v.1.13,2013-10-13 10:20:00,
2013-10-13 04:25:00,40.8,33.8,30.11,ESE,107,0.0,14.0,76,0.00,,,0.00,Wunderground v.1.13,2013-10-13 10:25:00,
2013-10-13 04:30:00,40.8,33.8,30.11,ESE,107,0.0,14.0,76,0.00,,,0.00,Wunderground v.1.13,2013-10-13 10:30:00,
2013-10-13 04:35:00,40.9,33.9,30.11,ESE,107,0.0,14.0,76,0.00,,,0.00,Wunderground v.1.13,2013-10-13 10:35:00,
2013-10-13 04:40:00,40.9,33.9,30.11,ESE,107,0.0,14.0,76,0.00,,,0.00,Wunderground v.1.13,2013-10-13 10:40:00,
2013-10-13 04:44:00,40.8,33.8,30.11,ESE,107,0.0,14.0,76,0.00,,,0.00,Wunderground v.1.13,2013-10-13 10:44:00,
2013-10-13 04:50:00,40.6,33.6,30.12,ESE,107,0.0,14.0,76,0.00,,,0.00,Wunderground v.1.13,2013-10-13 10:50:00,
2013-10-13 04:55:00,40.6,34.0,30.12,ESE,107,0.0,14.0,77,0.00,,,0.00,Wunderground v.1.13,2013-10-13 10:55:00,
2013-10-13 05:05:00,40.6,34.0,30.12,ESE,107,0.0,14.0,77,0.00,,,0.00,Wunderground v.1.13,2013-10-13 11:05:00,
2013-10-13 05:10:00,40.6,34.0,30.12,ESE,107,0.0,14.0,77,0.00,,,0.00,Wunderground v.1.13,2013-10-13 11:10:00,
2013-10-13 05:15:00,40.9,34.2,30.12,ESE,107,0.0,14.0,77,0.00,,,0.00,Wunderground v.1.13,2013-10-13 11:15:00,
2013-10-13 05:24:00,40.8,34.1,30.12,ESE,107,0.0,14.0,77,0.00,,,0.00,Wunderground v.1.13,2013-10-13 11:24:00,
2013-10-13 05:29:00,40.6,34.0,30.12,ESE,107,0.0,14.0,77,0.00,,,0.00,Wunderground v.1.13,2013-10-13 11:29:00,
2013-10-13 05:35:00,40.5,33.9,30.12,ESE,107,0.0,14.0,77,0.00,,,0.00,Wunderground v.1.13,2013-10-13 11:35:00,
2013-10-13 05:40:00,40.5,34.2,30.12,ESE,107,0.0,14.0,78,0.00,,,0.00,Wunderground v.1.13,2013-10-13 11:40:00,
2013-10-13 05:45:00,40.3,34.0,30.12,ESE,107,0.0,14.0,78,0.00,,,0.00,Wunderground v.1.13,2013-10-13 11:45:00,
2013-10-13 05:50:00,40.5,34.2,30.12,ESE,107,0.0,14.0,78,0.00,,,0.00,Wunderground v.1.13,2013-10-13 11:50:00,
2013-10-13 05:55:00,40.3,34.0,30.12,ESE,107,0.0,14.0,78,0.00,,,0.00,Wunderground v.1.13,2013-10-13 11:55:00,
2013-10-13 06:00:00,40.3,33.7,30.12,ESE,107,0.0,14.0,77,0.00,,,0.00,Wunderground v.1.13,2013-10-13 12:00:00,
2013-10-13 06:05:00,40.6,34.0,30.12,ESE,105,0.0,14.0,77,0.00,,,0.00,Wunderground v.1.13,2013-10-13 12:05:00,
2013-10-13 06:10:00,40.6,33.6,30.12,ESE,105,0.0,14.0,76,0.00,,,0.00,Wunderground v.1.13,2013-10-13 12:10:00,
2013-10-13 06:15:00,40.6,33.6,30.12,ESE,105,0.0,14.0,76,0.00,,,0.00,Wunderground v.1.13,2013-10-13 12:15:00,
2013-10-13 06:20:00,40.5,33.5,30.12,ESE,105,0.0,14.0,76,0.00,,,0.00,Wunderground v.1.13,2013-10-13 12:20:00,
2013-10-13 06:29:00,40.5,33.5,30.12,SSE,167,0.0,14.0,76,0.00,,,0.00,Wunderground v.1.13,2013-10-13 12:29:00,
2013-10-13 06:35:00,40.8,33.5,30.13,SSE,167,0.0,14.0,75,0.00,,,0.00,Wunderground v.1.13,2013-10-13 12:35:00,
2013-10-13 06:40:00,40.8,33.2,30.13,SSE,167,0.0,14.0,74,0.00,,,0.00,Wunderground v.1.13,2013-10-13 12:40:00,
2013-10-13 06:45:00,40.6,33.0,30.13,SSE,167,0.0,14.0,74,0.00,,,0.00,Wunderground v.1.13,2013-10-13 12:45:00,
2013-10-13 06:50:00,40.5,32.9,30.13,SSE,167,0.0,14.0,74,0.00,,,0.00,Wunderground v.1.13,2013-10-13 12:50:00,
2013-10-13 06:55:00,40.3,33.0,30.13,SSE,167,0.0,14.0,75,0.00,,,0.00,Wunderground v.1.13,2013-10-13 12:55:00,
2013-10-13 07:00:00,40.1,32.8,30.13,SSE,167,0.0,14.0,75,0.00,,,0.00,Wunderground v.1.13,2013-10-13 13:00:00,
2013-10-13 07:10:00,39.6,32.7,30.14,SSE,167,0.0,14.0,76,0.00,,,0.00,Wunderground v.1.13,2013-10-13 13:10:00,
2013-10-13 07:15:00,39.5,32.6,30.14,SSE,167,0.0,14.0,76,0.00,,,0.00,Wunderground v.1.13,2013-10-13 13:15:00,
2013-10-13 07:20:00,39.3,32.7,30.14,SSE,167,0.0,14.0,77,0.00,,,0.00,Wunderground v.1.13,2013-10-13 13:20:00,
2013-10-13 07:25:00,39.3,32.7,30.14,SSE,167,0.0,14.0,77,0.00,,,0.00,Wunderground v.1.13,2013-10-13 13:25:00,
2013-10-13 07:30:00,39.3,33.0,30.14,SSE,167,0.0,14.0,78,0.00,,,0.00,Wunderground v.1.13,2013-10-13 13:30:00,
2013-10-13 07:35:00,39.5,33.2,30.15,SSE,167,0.0,14.0,78,0.00,,,0.00,Wunderground v.1.13,2013-10-13 13:35:00,
2013-10-13 07:40:00,39.5,33.2,30.15,SSE,167,0.0,14.0,78,0.00,,,0.00,Wunderground v.1.13,2013-10-13 13:40:00,
2013-10-13 07:45:00,39.9,33.6,30.15,SSE,167,0.0,14.0,78,0.00,,,0.00,Wunderground v.1.13,2013-10-13 13:45:00,
2013-10-13 07:50:00,40.3,33.7,30.16,SSE,167,0.0,14.0,77,0.00,,,0.00,Wunderground v.1.13,2013-10-13 13:50:00,
2013-10-13 08:00:00,40.9,33.9,30.16,SSE,167,0.0,14.0,76,0.00,,,0.00,Wunderground v.1.13,2013-10-13 14:00:00,
2013-10-13 08:04:00,41.6,34.3,30.16,SSE,167,0.0,14.0,75,0.00,,,0.00,Wunderground v.1.13,2013-10-13 14:04:00,
2013-10-13 08:10:00,42.6,34.5,30.16,SSE,168,0.0,14.0,73,0.00,,,0.00,Wunderground v.1.13,2013-10-13 14:10:00,
2013-10-13 08:20:00,44.3,34.4,30.16,SSE,161,0.0,14.0,68,0.00,,,0.00,Wunderground v.1.13,2013-10-13 14:20:00,
2013-10-13 08:25:00,44.9,34.6,30.16,SSE,157,0.0,14.0,67,0.00,,,0.00,Wunderground v.1.13,2013-10-13 14:25:00,
2013-10-13 08:30:00,45.4,35.1,30.16,SSE,157,0.0,14.0,67,0.00,,,0.00,Wunderground v.1.13,2013-10-13 14:30:00,
2013-10-13 08:35:00,46.0,35.3,30.15,SSE,157,0.0,14.0,66,0.00,,,0.00,Wunderground v.1.13,2013-10-13 14:35:00,
2013-10-13 08:40:00,46.5,35.4,30.15,ESE,113,0.0,14.0,65,0.00,,,0.00,Wunderground v.1.13,2013-10-13 14:40:00,
2013-10-13 08:45:00,47.3,35.7,30.15,SSE,147,0.0,14.0,64,0.00,,,0.00,Wunderground v.1.13,2013-10-13 14:45:00,
2013-10-13 08:50:00,48.0,36.0,30.15,ESE,107,1.0,1.0,63,0.00,,,0.00,Wunderground v.1.13,2013-10-13 14:50:00,
2013-10-13 08:55:00,48.5,35.7,30.15,SSE,155,1.0,1.0,61,0.00,,,0.00,Wunderground v.1.13,2013-10-13 14:55:00,
2013-10-13 09:00:00,49.2,36.3,30.15,SSE,148,1.0,14.0,61,0.00,,,0.00,Wunderground v.1.13,2013-10-13 15:00:00,
2013-10-13 09:10:00,50.2,36.4,30.15,South,170,3.0,14.0,59,0.00,,,0.00,Wunderground v.1.13,2013-10-13 15:10:00,
2013-10-13 09:15:00,51.0,36.7,30.15,SSE,156,3.0,14.0,58,0.00,,,0.00,Wunderground v.1.13,2013-10-13 15:15:00,
2013-10-13 09:24:00,51.4,36.2,30.15,SSE,150,7.0,17.0,56,0.00,,,0.00,Wunderground v.1.13,2013-10-13 15:24:00,
2013-10-13 09:30:00,51.7,36.5,30.15,South,189,9.0,15.0,56,0.00,,,0.00,Wunderground v.1.13,2013-10-13 15:30:00,
2013-10-13 09:35:00,52.6,36.4,30.14,South,173,8.0,8.0,54,0.00,,,0.00,Wunderground v.1.13,2013-10-13 15:35:00,
2013-10-13 09:40:00,52.9,36.7,30.14,SE,141,7.0,7.0,54,0.00,,,0.00,Wunderground v.1.13,2013-10-13 15:40:00,
2013-10-13 09:45:00,53.3,36.1,30.14,SE,140,8.0,14.0,52,0.00,,,0.00,Wunderground v.1.13,2013-10-13 15:45:00,
2013-10-13 09:55:00,54.1,36.4,30.13,SSW,200,7.0,14.0,51,0.00,,,0.00,Wunderground v.1.13,2013-10-13 15:55:00,
2013-10-13 10:00:00,54.2,36.5,30.13,South,177,9.0,14.0,51,0.00,,,0.00,Wunderground v.1.13,2013-10-13 16:00:00,
2013-10-13 10:10:00,55.0,36.7,30.13,South,178,8.0,8.0,50,0.00,,,0.00,Wunderground v.1.13,2013-10-13 16:10:00,
2013-10-13 10:15:00,55.4,37.1,30.13,South,173,6.0,6.0,50,0.00,,,0.00,Wunderground v.1.13,2013-10-13 16:15:00,
2013-10-13 10:20:00,55.7,36.3,30.13,SE,135,6.0,6.0,48,0.00,,,0.00,Wunderground v.1.13,2013-10-13 16:20:00,
2013-10-13 10:25:00,56.0,37.1,30.13,SSE,155,8.0,16.0,49,0.00,,,0.00,Wunderground v.1.13,2013-10-13 16:25:00,
2013-10-13 10:30:00,56.7,37.2,30.13,SE,141,8.0,8.0,48,0.00,,,0.00,Wunderground v.1.13,2013-10-13 16:30:00,
2013-10-13 10:40:00,57.0,36.4,30.12,South,173,11.0,23.0,46,0.00,,,0.00,Wunderground v.1.13,2013-10-13 16:40:00,
2013-10-13 10:45:00,57.2,36.0,30.12,SSE,147,10.0,10.0,45,0.00,,,0.00,Wunderground v.1.13,2013-10-13 16:45:00,
2013-10-13 10:50:00,57.6,36.4,30.12,SSE,150,10.0,10.0,45,0.00,,,0.00,Wunderground v.1.13,2013-10-13 16:50:00,
2013-10-13 10:55:00,57.8,36.6,30.12,SSE,157,10.0,14.0,45,0.00,,,0.00,Wunderground v.1.13,2013-10-13 16:55:00,
2013-10-13 11:00:00,58.0,36.2,30.12,SSE,165,11.0,14.0,44,0.00,,,0.00,Wunderground v.1.13,2013-10-13 17:00:00,
2013-10-13 11:05:00,58.1,36.3,30.10,SSE,159,11.0,11.0,44,0.00,,,0.00,Wunderground v.1.13,2013-10-13 17:05:00,
2013-10-13 11:10:00,58.7,36.2,30.10,SSW,200,9.0,9.0,43,0.00,,,0.00,Wunderground v.1.13,2013-10-13 17:10:00,
2013-10-13 11:15:00,59.0,37.1,30.10,SSE,163,8.0,18.0,44,0.00,,,0.00,Wunderground v.1.13,2013-10-13 17:15:00,
2013-10-13 11:20:00,59.5,37.0,30.10,South,169,9.0,20.0,43,0.00,,,0.00,Wunderground v.1.13,2013-10-13 17:20:00,
2013-10-13 11:24:00,59.5,35.8,30.10,SSW,201,9.0,9.0,41,0.00,,,0.00,Wunderground v.1.13,2013-10-13 17:24:00,
2013-10-13 11:29:00,59.5,36.4,30.10,SSE,167,9.0,14.0,42,0.00,,,0.00,Wunderground v.1.13,2013-10-13 17:29:00,
2013-10-13 11:35:00,59.6,35.9,30.09,South,175,9.0,9.0,41,0.00,,,0.00,Wunderground v.1.13,2013-10-13 17:35:00,
2013-10-13 11:40:00,60.2,37.0,30.09,SSW,194,8.0,14.0,42,0.00,,,0.00,Wunderground v.1.13,2013-10-13 17:40:00,
2013-10-13 11:45:00,60.4,35.3,30.09,ESE,117,9.0,9.0,39,0.00,,,0.00,Wunderground v.1.13,2013-10-13 17:45:00,
2013-10-13 11:50:00,59.9,34.9,30.09,SSE,165,11.0,11.0,39,0.00,,,0.00,Wunderground v.1.13,2013-10-13 17:50:00,
2013-10-13 11:54:00,60.4,34.7,30.09,South,169,11.0,14.0,38,0.00,,,0.00,Wunderground v.1.13,2013-10-13 17:54:00,
2013-10-13 12:00:00,60.7,34.9,30.09,SE,142,10.0,19.0,38,0.00,,,0.00,Wunderground v.1.13,2013-10-13 18:00:00,
2013-10-13 12:05:00,60.7,34.9,30.08,SSW,194,11.0,14.0,38,0.00,,,0.00,Wunderground v.1.13,2013-10-13 18:05:00,
2013-10-13 12:10:00,61.2,35.4,30.08,SE,146,11.0,11.0,38,0.00,,,0.00,Wunderground v.1.13,2013-10-13 18:10:00,
2013-10-13 12:15:00,61.3,34.8,30.08,SE,145,9.0,14.0,37,0.00,,,0.00,Wunderground v.1.13,2013-10-13 18:15:00,
2013-10-13 12:20:00,61.5,35.6,30.07,South,179,8.0,8.0,38,0.00,,,0.00,Wunderground v.1.13,2013-10-13 18:20:00,
2013-10-13 12:25:00,62.1,35.5,30.07,SSE,161,7.0,21.0,37,0.00,,,0.00,Wunderground v.1.13,2013-10-13 18:25:00,
2013-10-13 12:30:00,62.3,35.0,30.07,South,179,7.0,14.0,36,0.00,,,0.00,Wunderground v.1.13,2013-10-13 18:30:00,
2013-10-13 12:35:00,62.0,34.7,30.06,South,180,8.0,14.0,36,0.00,,,0.00,Wunderground v.1.13,2013-10-13 18:35:00,
2013-10-13 12:40:00,62.1,34.8,30.06,SE,140,8.0,14.0,36,0.00,,,0.00,Wunderground v.1.13,2013-10-13 18:40:00,
2013-10-13 12:44:00,62.6,34.5,30.06,SSE,162,6.0,14.0,35,0.00,,,0.00,Wunderground v.1.13,2013-10-13 18:44:00,
2013-10-13 12:49:00,62.1,34.1,30.05,SSE,147,7.0,7.0,35,0.00,,,0.00,Wunderground v.1.13,2013-10-13 18:49:00,
2013-10-13 12:55:00,62.6,34.5,30.05,SSW,198,7.0,14.0,35,0.00,,,0.00,Wunderground v.1.13,2013-10-13 18:55:00,
2013-10-13 13:00:00,62.4,33.6,30.05,SSE,168,6.0,6.0,34,0.00,,,0.00,Wunderground v.1.13,2013-10-13 19:00:00,
2013-10-13 13:05:00,62.7,34.6,30.04,SSE,168,7.0,22.0,35,0.00,,,0.00,Wunderground v.1.13,2013-10-13 19:05:00,
2013-10-13 13:10:00,62.6,34.5,30.04,South,173,7.0,7.0,35,0.00,,,0.00,Wunderground v.1.13,2013-10-13 19:10:00,
2013-10-13 13:14:00,62.4,32.9,30.04,SSE,155,8.0,18.0,33,0.00,,,0.00,Wunderground v.1.13,2013-10-13 19:14:00,
2013-10-13 13:20:00,62.9,34.8,30.02,ESE,103,7.0,7.0,35,0.00,,,0.00,Wunderground v.1.13,2013-10-13 19:20:00,
2013-10-13 13:25:00,62.9,34.1,30.02,SSE,156,6.0,14.0,34,0.00,,,0.00,Wunderground v.1.13,2013-10-13 19:25:00,
2013-10-13 13:30:00,63.1,35.0,30.02,SSE,166,6.0,6.0,35,0.00,,,0.00,Wunderground v.1.13,2013-10-13 19:30:00,
2013-10-13 13:34:00,63.1,35.0,30.01,South,187,6.0,15.0,35,0.00,,,0.00,Wunderground v.1.13,2013-10-13 19:34:00,
2013-10-13 13:39:00,63.2,35.1,30.01,South,171,8.0,8.0,35,0.00,,,0.00,Wunderground v.1.13,2013-10-13 19:39:00,
2013-10-13 13:45:00,64.0,35.0,30.01,SSE,159,6.0,6.0,34,0.00,,,0.00,Wunderground v.1.13,2013-10-13 19:45:00,
2013-10-13 13:50:00,63.7,34.0,30.00,SSE,159,6.0,14.0,33,0.00,,,0.00,Wunderground v.1.13,2013-10-13 19:50:00,
2013-10-13 13:55:00,63.9,35.0,30.00,SE,145,8.0,8.0,34,0.00,,,0.00,Wunderground v.1.13,2013-10-13 19:55:00,
2013-10-13 14:00:00,63.5,35.3,30.00,East,80,8.0,8.0,35,0.00,,,0.00,Wunderground v.1.13,2013-10-13 20:00:00,
2013-10-13 14:05:00,63.9,35.0,29.99,SSE,153,7.0,14.0,34,0.00,,,0.00,Wunderground v.1.13,2013-10-13 20:05:00,
2013-10-13 14:15:00,64.2,36.0,29.99,SSE,165,6.0,6.0,35,0.00,,,0.00,Wunderground v.1.13,2013-10-13 20:15:00,
2013-10-13 14:20:00,64.0,35.8,29.99,SSE,165,6.0,14.0,35,0.00,,,0.00,Wunderground v.1.13,2013-10-13 20:20:00,
2013-10-13 14:25:00,64.5,36.9,29.99,ESE,108,6.0,6.0,36,0.00,,,0.00,Wunderground v.1.13,2013-10-13 20:25:00,
2013-10-13 14:30:00,64.7,35.7,29.99,South,182,5.0,5.0,34,0.00,,,0.00,Wunderground v.1.13,2013-10-13 20:30:00,
2013-10-13 14:35:00,64.8,37.2,29.99,SSE,159,4.0,14.0,36,0.00,,,0.00,Wunderground v.1.13,2013-10-13 20:35:00,
2013-10-13 14:40:00,64.5,36.2,29.99,SSE,160,5.0,5.0,35,0.00,,,0.00,Wunderground v.1.13,2013-10-13 20:40:00,
2013-10-13 14:45:00,64.5,36.2,29.99,SSE,158,7.0,14.0,35,0.00,,,0.00,Wunderground v.1.13,2013-10-13 20:45:00,
2013-10-13 14:50:00,64.3,35.3,29.98,ESE,123,6.0,6.0,34,0.00,,,0.00,Wunderground v.1.13,2013-10-13 20:50:00,
2013-10-13 14:55:00,64.7,36.4,29.98,SE,145,6.0,6.0,35,0.00,,,0.00,Wunderground v.1.13,2013-10-13 20:55:00,
2013-10-13 15:00:00,65.0,36.7,29.98,ESE,123,5.0,5.0,35,0.00,,,0.00,Wunderground v.1.13,2013-10-13 21:00:00,
2013-10-13 15:04:00,64.7,35.7,29.97,SSE,148,7.0,7.0,34,0.00,,,0.00,Wunderground v.1.13,2013-10-13 21:04:00,
2013-10-13 15:10:00,64.5,35.5,29.97,SE,143,7.0,7.0,34,0.00,,,0.00,Wunderground v.1.13,2013-10-13 21:10:00,
2013-10-13 15:15:00,64.7,36.4,29.97,ENE,68,7.0,7.0,35,0.00,,,0.00,Wunderground v.1.13,2013-10-13 21:15:00,
2013-10-13 15:24:00,64.5,36.2,29.97,SE,133,7.0,7.0,35,0.00,,,0.00,Wunderground v.1.13,2013-10-13 21:24:00,
2013-10-13 15:29:00,64.8,35.8,29.97,ESE,121,7.0,7.0,34,0.00,,,0.00,Wunderground v.1.13,2013-10-13 21:29:00,
2013-10-13 15:34:00,64.8,35.8,29.97,SSE,155,6.0,6.0,34,0.00,,,0.00,Wunderground v.1.13,2013-10-13 21:34:00,
2013-10-13 15:40:00,64.7,35.7,29.97,SSE,147,8.0,8.0,34,0.00,,,0.00,Wunderground v.1.13,2013-10-13 21:40:00,
2013-10-13 15:45:00,64.5,34.7,29.97,SSE,160,8.0,8.0,33,0.00,,,0.00,Wunderground v.1.13,2013-10-13 21:45:00,
2013-10-13 15:50:00,64.5,34.0,29.97,SE,142,8.0,8.0,32,0.00,,,0.00,Wunderground v.1.13,2013-10-13 21:50:00,
2013-10-13 15:55:00,64.7,34.9,29.97,South,173,7.0,18.0,33,0.00,,,0.00,Wunderground v.1.13,2013-10-13 21:55:00,
2013-10-13 16:00:00,64.3,33.8,29.97,SSE,160,9.0,14.0,32,0.00,,,0.00,Wunderground v.1.13,2013-10-13 22:00:00,
2013-10-13 16:04:00,64.2,33.7,29.96,SSE,155,9.0,26.0,32,0.00,,,0.00,Wunderground v.1.13,2013-10-13 22:04:00,
2013-10-13 16:09:00,64.2,33.7,29.96,SE,137,8.0,15.0,32,0.00,,,0.00,Wunderground v.1.13,2013-10-13 22:09:00,
2013-10-13 16:15:00,64.2,33.7,29.96,SE,142,9.0,9.0,32,0.00,,,0.00,Wunderground v.1.13,2013-10-13 22:15:00,
2013-10-13 16:20:00,64.3,33.8,29.96,SSE,168,8.0,16.0,32,0.00,,,0.00,Wunderground v.1.13,2013-10-13 22:20:00,
2013-10-13 16:30:00,64.2,34.5,29.96,SSE,155,8.0,8.0,33,0.00,,,0.00,Wunderground v.1.13,2013-10-13 22:30:00,
2013-10-13 16:35:00,64.3,34.6,29.95,SE,131,7.0,7.0,33,0.00,,,0.00,Wunderground v.1.13,2013-10-13 22:35:00,
2013-10-13 16:39:00,64.2,34.5,29.95,SSE,160,6.0,14.0,33,0.00,,,0.00,Wunderground v.1.13,2013-10-13 22:39:00,
2013-10-13 16:44:00,63.9,35.0,29.95,SE,136,5.0,14.0,34,0.00,,,0.00,Wunderground v.1.13,2013-10-13 22:44:00,
2013-10-13 16:50:00,63.1,36.4,29.95,SE,144,5.0,5.0,37,0.00,,,0.00,Wunderground v.1.13,2013-10-13 22:50:00,
2013-10-13 16:55:00,62.9,36.2,29.95,SSE,157,5.0,5.0,37,0.00,,,0.00,Wunderground v.1.13,2013-10-13 22:55:00,
2013-10-13 17:00:00,62.7,36.0,29.95,SSE,159,4.0,4.0,37,0.00,,,0.00,Wunderground v.1.13,2013-10-13 23:00:00,
2013-10-13 17:05:00,62.7,36.0,29.95,SSE,160,5.0,16.0,37,0.00,,,0.00,Wunderground v.1.13,2013-10-13 23:05:00,
2013-10-13 17:10:00,62.6,35.9,29.95,SSE,158,5.0,14.0,37,0.00,,,0.00,Wunderground v.1.13,2013-10-13 23:10:00,
2013-10-13 17:15:00,62.4,35.8,29.95,SE,134,5.0,14.0,37,0.00,,,0.00,Wunderground v.1.13,2013-10-13 23:15:00,
2013-10-13 17:20:00,62.4,36.4,29.95,SE,136,6.0,6.0,38,0.00,,,0.00,Wunderground v.1.13,2013-10-13 23:20:00,
2013-10-13 17:25:00,62.3,36.4,29.95,SSE,161,5.0,5.0,38,0.00,,,0.00,Wunderground v.1.13,2013-10-13 23:25:00,
2013-10-13 17:30:00,61.8,35.9,29.95,SSE,163,4.0,14.0,38,0.00,,,0.00,Wunderground v.1.13,2013-10-13 23:30:00,
2013-10-13 17:35:00,61.6,35.7,29.95,SSE,157,4.0,4.0,38,0.00,,,0.00,Wunderground v.1.13,2013-10-13 23:35:00,
2013-10-13 17:40:00,61.5,36.3,29.95,South,172,5.0,14.0,39,0.00,,,0.00,Wunderground v.1.13,2013-10-13 23:40:00,
2013-10-13 17:45:00,61.3,36.8,29.95,SSE,158,4.0,4.0,40,0.00,,,0.00,Wunderground v.1.13,2013-10-13 23:45:00,
2013-10-13 17:49:00,61.3,36.8,29.95,SSE,148,5.0,14.0,40,0.00,,,0.00,Wunderground v.1.13,2013-10-13 23:49:00,
2013-10-13 17:54:00,61.0,36.5,29.95,SE,135,5.0,5.0,40,0.00,,,0.00,Wunderground v.1.13,2013-10-13 23:54:00,
2013-10-13 17:59:00,60.9,37.0,29.95,ESE,109,3.0,3.0,41,0.00,,,0.00,Wunderground v.1.13,2013-10-13 23:59:00,
2013-10-13 18:04:00,60.5,36.7,29.95,East,98,2.0,2.0,41,0.00,,,0.00,Wunderground v.1.13,2013-10-14 00:04:00,
2013-10-13 18:09:00,60.4,37.2,29.95,South,173,1.0,1.0,42,0.00,,,0.00,Wunderground v.1.13,2013-10-14 00:09:00,
2013-10-13 18:15:00,60.2,37.0,29.95,SE,142,1.0,1.0,42,0.00,,,0.00,Wunderground v.1.13,2013-10-14 00:15:00,
2013-10-13 18:20:00,60.4,36.6,29.95,East,93,3.0,3.0,41,0.00,,,0.00,Wunderground v.1.13,2013-10-14 00:20:00,
2013-10-13 18:25:00,60.4,36.6,29.95,SE,136,3.0,3.0,41,0.00,,,0.00,Wunderground v.1.13,2013-10-14 00:25:00,
2013-10-13 18:30:00,60.2,36.4,29.95,SE,142,3.0,3.0,41,0.00,,,0.00,Wunderground v.1.13,2013-10-14 00:30:00,
2013-10-13 18:35:00,60.1,36.3,29.95,SSE,156,4.0,4.0,41,0.00,,,0.00,Wunderground v.1.13,2013-10-14 00:35:00,
2013-10-13 18:40:00,60.1,36.3,29.95,SE,134,4.0,4.0,41,0.00,,,0.00,Wunderground v.1.13,2013-10-14 00:40:00,
2013-10-13 18:45:00,59.9,36.7,29.95,SE,142,2.0,2.0,42,0.00,,,0.00,Wunderground v.1.13,2013-10-14 00:45:00,
2013-10-13 18:50:00,59.8,36.6,29.95,SSE,154,2.0,2.0,42,0.00,,,0.00,Wunderground v.1.13,2013-10-14 00:50:00,
2013-10-13 18:55:00,59.8,36.6,29.95,SE,142,3.0,3.0,42,0.00,,,0.00,Wunderground v.1.13,2013-10-14 00:55:00,
2013-10-13 19:00:00,59.8,37.2,29.95,ESE,107,2.0,14.0,43,0.00,,,0.00,Wunderground v.1.13,2013-10-14 01:00:00,
2013-10-13 19:05:00,59.6,37.1,29.95,SE,127,2.0,2.0,43,0.00,,,0.00,Wunderground v.1.13,2013-10-14 01:05:00,
2013-10-13 19:10:00,59.5,37.6,29.95,ESE,121,2.0,2.0,44,0.00,,,0.00,Wunderground v.1.13,2013-10-14 01:10:00,
2013-10-13 19:15:00,59.5,37.6,29.95,SE,146,1.0,1.0,44,0.00,,,0.00,Wunderground v.1.13,2013-10-14 01:15:00,
2013-10-13 19:19:00,59.3,37.4,29.95,ESE,105,0.0,14.0,44,0.00,,,0.00,Wunderground v.1.13,2013-10-14 01:19:00,
2013-10-13 19:24:00,59.2,37.9,29.95,SE,137,1.0,1.0,45,0.00,,,0.00,Wunderground v.1.13,2013-10-14 01:24:00,
2013-10-13 19:29:00,59.2,37.9,29.95,SE,144,1.0,14.0,45,0.00,,,0.00,Wunderground v.1.13,2013-10-14 01:29:00,
2013-10-13 19:35:00,59.2,38.4,29.95,SE,143,1.0,1.0,46,0.00,,,0.00,Wunderground v.1.13,2013-10-14 01:35:00,
2013-10-13 19:40:00,59.2,38.4,29.95,SE,140,2.0,2.0,46,0.00,,,0.00,Wunderground v.1.13,2013-10-14 01:40:00,
2013-10-13 19:45:00,59.2,38.4,29.95,SE,143,1.0,14.0,46,0.00,,,0.00,Wunderground v.1.13,2013-10-14 01:45:00,
2013-10-13 19:50:00,59.2,39.0,29.94,SSE,157,0.0,14.0,47,0.00,,,0.00,Wunderground v.1.13,2013-10-14 01:50:00,
2013-10-13 19:55:00,59.2,39.0,29.94,SE,139,1.0,1.0,47,0.00,,,0.00,Wunderground v.1.13,2013-10-14 01:55:00,
2013-10-13 20:00:00,59.0,38.8,29.94,SE,130,1.0,1.0,47,0.00,,,0.00,Wunderground v.1.13,2013-10-14 02:00:00,
2013-10-13 20:05:00,59.0,38.8,29.94,SSE,161,2.0,14.0,47,0.00,,,0.00,Wunderground v.1.13,2013-10-14 02:05:00,
2013-10-13 20:10:00,59.0,38.8,29.94,SE,140,2.0,14.0,47,0.00,,,0.00,Wunderground v.1.13,2013-10-14 02:10:00,
2013-10-13 20:15:00,59.0,39.3,29.94,SE,143,2.0,14.0,48,0.00,,,0.00,Wunderground v.1.13,2013-10-14 02:15:00,
2013-10-13 20:20:00,59.0,39.3,29.93,East,84,2.0,2.0,48,0.00,,,0.00,Wunderground v.1.13,2013-10-14 02:20:00,
2013-10-13 20:25:00,58.9,39.8,29.93,SE,134,1.0,1.0,49,0.00,,,0.00,Wunderground v.1.13,2013-10-14 02:25:00,
2013-10-13 20:35:00,59.0,40.4,29.93,SSE,152,2.0,2.0,50,0.00,,,0.00,Wunderground v.1.13,2013-10-14 02:35:00,
2013-10-13 20:40:00,59.0,40.9,29.93,SE,124,3.0,3.0,51,0.00,,,0.00,Wunderground v.1.13,2013-10-14 02:40:00,
2013-10-13 20:50:00,58.9,41.8,29.92,SSE,153,2.0,14.0,53,0.00,,,0.00,Wunderground v.1.13,2013-10-14 02:50:00,
2013-10-13 20:55:00,58.9,42.3,29.92,SE,144,4.0,4.0,54,0.00,,,0.00,Wunderground v.1.13,2013-10-14 02:55:00,
2013-10-13 21:00:00,58.6,42.5,29.92,SSE,165,4.0,4.0,55,0.00,,,0.00,Wunderground v.1.13,2013-10-14 03:00:00,
2013-10-13 21:05:00,58.3,43.1,29.92,SE,146,3.0,14.0,57,0.00,,,0.00,Wunderground v.1.13,2013-10-14 03:05:00,
2013-10-13 21:10:00,58.0,43.7,29.92,ESE,116,2.0,2.0,59,0.00,,,0.00,Wunderground v.1.13,2013-10-14 03:10:00,
2013-10-13 21:14:00,57.8,43.6,29.92,ESE,119,3.0,14.0,59,0.00,,,0.00,Wunderground v.1.13,2013-10-14 03:14:00,
2013-10-13 21:20:00,57.8,44.0,29.92,SE,145,4.0,4.0,60,0.00,,,0.00,Wunderground v.1.13,2013-10-14 03:20:00,
2013-10-13 21:25:00,57.6,43.8,29.92,SSE,148,3.0,14.0,60,0.00,,,0.00,Wunderground v.1.13,2013-10-14 03:25:00,
2013-10-13 21:30:00,57.5,44.1,29.92,SSE,149,1.0,1.0,61,0.00,,,0.00,Wunderground v.1.13,2013-10-14 03:30:00,
2013-10-13 21:35:00,57.3,44.4,29.91,SE,124,1.0,1.0,62,0.00,,,0.00,Wunderground v.1.13,2013-10-14 03:35:00,
2013-10-13 21:40:00,57.2,44.3,29.91,SE,124,3.0,14.0,62,0.00,,,0.00,Wunderground v.1.13,2013-10-14 03:40:00,
2013-10-13 21:45:00,57.0,44.5,29.91,East,95,5.0,5.0,63,0.00,,,0.00,Wunderground v.1.13,2013-10-14 03:45:00,
2013-10-13 21:50:00,56.9,44.8,29.90,SE,126,4.0,14.0,64,0.00,,,0.00,Wunderground v.1.13,2013-10-14 03:50:00,
2013-10-13 21:55:00,56.7,44.7,29.90,SE,144,5.0,5.0,64,0.00,,,0.00,Wunderground v.1.13,2013-10-14 03:55:00,
2013-10-13 22:00:00,56.6,44.6,29.90,SSE,165,5.0,14.0,64,0.00,,,0.00,Wunderground v.1.13,2013-10-14 04:00:00,
2013-10-13 22:05:00,56.6,45.0,29.89,South,185,5.0,5.0,65,0.00,,,0.00,Wunderground v.1.13,2013-10-14 04:05:00,
2013-10-13 22:09:00,56.5,44.9,29.89,SSE,155,5.0,14.0,65,0.00,,,0.00,Wunderground v.1.13,2013-10-14 04:09:00,
2013-10-13 22:14:00,56.3,45.1,29.89,ESE,123,5.0,14.0,66,0.00,,,0.00,Wunderground v.1.13,2013-10-14 04:14:00,
2013-10-13 22:20:00,56.2,45.0,29.88,SSE,164,5.0,5.0,66,0.00,,,0.00,Wunderground v.1.13,2013-10-14 04:20:00,
2013-10-13 22:25:00,56.2,45.8,29.88,South,173,5.0,14.0,68,0.00,,,0.00,Wunderground v.1.13,2013-10-14 04:25:00,
2013-10-13 22:30:00,56.0,45.2,29.88,SSE,152,5.0,15.0,67,0.00,,,0.00,Wunderground v.1.13,2013-10-14 04:30:00,
2013-10-13 22:35:00,55.9,45.1,29.87,SSE,148,6.0,14.0,67,0.00,,,0.00,Wunderground v.1.13,2013-10-14 04:35:00,
2013-10-13 22:40:00,55.9,45.1,29.87,SSE,160,4.0,14.0,67,0.00,,,0.00,Wunderground v.1.13,2013-10-14 04:40:00,
2013-10-13 22:45:00,55.9,45.5,29.87,SE,144,3.0,3.0,68,0.00,,,0.00,Wunderground v.1.13,2013-10-14 04:45:00,
2013-10-13 22:50:00,55.9,45.5,29.86,SSE,155,3.0,3.0,68,0.00,,,0.00,Wunderground v.1.13,2013-10-14 04:50:00,
2013-10-13 22:55:00,55.9,45.5,29.86,SSE,150,3.0,3.0,68,0.00,,,0.00,Wunderground v.1.13,2013-10-14 04:55:00,
2013-10-13 22:59:00,55.9,45.5,29.86,SE,135,2.0,2.0,68,0.00,,,0.00,Wunderground v.1.13,2013-10-14 04:59:00,
2013-10-13 23:04:00,56.0,45.6,29.86,SE,138,2.0,2.0,68,0.00,,,0.00,Wunderground v.1.13,2013-10-14 05:04:00,
2013-10-13 23:09:00,56.3,45.9,29.86,East,90,3.0,3.0,68,0.00,,,0.00,Wunderground v.1.13,2013-10-14 05:09:00,
2013-10-13 23:14:00,56.6,46.5,29.86,SSE,153,3.0,14.0,69,0.00,,,0.00,Wunderground v.1.13,2013-10-14 05:14:00,
2013-10-13 23:20:00,56.9,46.8,29.84,SE,137,3.0,3.0,69,0.00,,,0.00,Wunderground v.1.13,2013-10-14 05:20:00,
2013-10-13 23:30:00,56.9,47.2,29.84,ESE,104,3.0,3.0,70,0.00,,,0.00,Wunderground v.1.13,2013-10-14 05:30:00,
2013-10-13 23:35:00,56.9,47.2,29.84,SSE,167,4.0,14.0,70,0.00,,,0.00,Wunderground v.1.13,2013-10-14 05:35:00,
2013-10-13 23:40:00,56.9,47.6,29.84,SE,127,4.0,4.0,71,0.00,,,0.00,Wunderground v.1.13,2013-10-14 05:40:00,
2013-10-13 23:45:00,56.7,47.8,29.84,SE,133,3.0,3.0,72,0.00,,,0.00,Wunderground v.1.13,2013-10-14 05:45:00,
2013-10-13 23:49:00,56.6,48.0,29.84,SE,143,2.0,2.0,73,0.00,,,0.00,Wunderground v.1.13,2013-10-14 05:49:00,
2013-10-13 23:54:00,56.5,47.9,29.84,SE,140,2.0,2.0,73,0.00,,,0.00,Wunderground v.1.13,2013-10-14 05:54:00,
2013-10-13 23:59:00,56.5,48.3,29.84,SSE,149,3.0,3.0,74,0.00,,,0.00,Wunderground v.1.13,2013-10-14 05:59:00,